Tracking 19908 objects as of 19-Oct-2019
HD Live streaming from Space Station
objects crossing your sky now

SBS 3

Track SBS 3 now!
SBS 3 is classified as:


NORAD ID: 13651
Int'l Code: 1982-110B
Perigee: 35,859.6 km
Apogee: 35,921.1 km
Inclination: 14.9 °
Period: 1,441.0 minutes
Semi major axis: 42261 km
RCS: 15.8489 m2 (large)
Launch date: November 11, 1982
Source: United States (US)
Launch site: AIR FORCE EASTERN TEST RANGE (AFETR)
aabbcc
Your satellite tracking list
Your tracking list is empty




NASA's NSSDC Master Catalog

Two Line Element Set (TLE):
1 13651U 82110B   19291.37773146 +.00000103 +00000-0 +00000-0 0  9992
2 13651 014.8510 354.0579 0007280 035.9955 345.0858 00.99928055022221
Source of the keplerian elements: AFSPC